Hourly Data Report for July 12, 2011

HALIFAX STANFIELD INT'L A
NOVA SCOTIA

44°52'48.060" N
63°30'00.050" W
145.40 m
8202250
71395
YHZ

Download Data

Hourly Data (July 2011)
Hourly Data Report for July 12, 2011
TIME
LST
Temp Definition
°C
Dew Point Definition
°C
Rel Hum Definition
%
Precip. Amount Definition
mm

Wind Dir Definition
10's deg

Wind Spd Definition
km/h
Visibility Definition
km
Stn Press Definition
kPa
Hmdx Definition


Wind Chill Definition


Weather Definition


00:00 15.7 12.1 79   19 22 24.1 99.25     Cloudy
01:00 15.6 13.7 88   19 22 24.1 99.22     Cloudy
02:00 15.4 14.0 91   19 30 24.1 99.16     Cloudy
03:00 16.0 15.0 94   19 33 1.6 99.09     Fog
04:00 16.6 15.7 94   21 37 1.0 99.06     Fog
05:00 17.1 16.3 95   20 35 0.8 98.99     Fog
06:00 17.1 16.3 95   20 33 0.8 98.94     Fog
07:00 17.2 16.5 96   20 26 0.8 98.96     Rain, Fog
08:00 17.3 16.5 95   19 35 6.4 98.91     Moderate Rain, Fog
09:00 17.3 16.5 95   19 30 6.4 98.85     Moderate Rain, Fog
10:00 17.0 16.2 95   16 19 3.2 98.73     Rain, Fog
11:00 16.7 15.9 95   17 19 3.2 98.67     Rain Showers, Fog
12:00 16.3 15.6 96   19 20 1.2 98.63     Rain Showers, Fog
13:00 16.8 16.0 95   18 26 0.8 98.56     Rain Showers, Fog
14:00 16.5 15.7 95   19 19 0.8 98.50     Fog
15:00 16.6 15.7 94   20 24 9.7 98.46     Fog
16:00 17.3 16.6 96   19 19 0.4 98.42     Fog
17:00 17.0 16.3 96   21 17 0.4 98.41     Fog
18:00 17.0 16.3 96   20 17 0.2 98.40     Fog
19:00 16.9 16.3 96   19 17 0.4 98.43     Drizzle, Fog
20:00 16.5 15.8 96   20 9 0.4 98.41     Drizzle, Fog
21:00 16.2 15.4 95   18 9 0.6 98.40     Fog
22:00 16.2 15.5 96   20 9 0.2 98.43     Fog
23:00 16.2 15.6 96   18 9 0.2 98.39     Fog

Notes on Data Quality.

Legend

  • E = Estimated
  • M = Missing
  • NA = Not Available*
  • [empty] = Indicates an unobserved value
Date modified: